Time,TemperatureF,DewpointF,PressureIn,WindDirection,WindDirectionDegrees,WindSpeedMPH,WindSpeedGustMPH,Humidity,HourlyPrecipIn,Conditions,Clouds,dailyrainin,SoftwareType,DateUTC
2013-10-04 00:00:00,54.9,50.2,30.06,West,273,0.0,0.0,84,0.00,,---,0.00,VWS V14.01,2013-10-04 04:00:00,
2013-10-04 00:05:00,54.8,50.1,30.06,West,273,0.0,0.0,84,0.00,,---,0.00,VWS V14.01,2013-10-04 04:05:00,
2013-10-04 00:10:00,54.7,50.3,30.06,West,273,0.0,0.0,85,0.00,,---,0.00,VWS V14.01,2013-10-04 04:10:00,
2013-10-04 00:15:00,54.6,50.2,30.06,West,273,0.0,0.0,85,0.00,,---,0.00,VWS V14.01,2013-10-04 04:15:00,
2013-10-04 00:20:00,54.7,50.3,30.06,West,273,0.0,0.0,85,0.00,,---,0.00,VWS V14.01,2013-10-04 04:20:00,
2013-10-04 00:25:00,54.9,50.5,30.06,West,273,0.0,0.0,85,0.00,,---,0.00,VWS V14.01,2013-10-04 04:25:00,
2013-10-04 00:30:00,55.0,50.6,30.06,West,273,0.0,0.0,85,0.00,,---,0.00,VWS V14.01,2013-10-04 04:30:00,
2013-10-04 00:35:00,55.1,50.7,30.06,West,273,0.0,0.0,85,0.00,,---,0.00,VWS V14.01,2013-10-04 04:35:00,
2013-10-04 00:40:00,55.4,50.7,30.06,West,273,0.0,0.0,84,0.00,,---,0.00,VWS V14.01,2013-10-04 04:40:00,
2013-10-04 00:45:00,55.8,50.7,30.06,West,272,0.0,2.0,83,0.00,,---,0.00,VWS V14.01,2013-10-04 04:45:00,
2013-10-04 00:50:00,56.0,50.9,30.06,West,272,0.0,0.0,83,0.00,,---,0.00,VWS V14.01,2013-10-04 04:50:00,
2013-10-04 00:55:00,55.7,50.6,30.06,West,272,0.0,0.0,83,0.00,,---,0.00,VWS V14.01,2013-10-04 04:55:00,
2013-10-04 01:00:00,55.5,50.4,30.06,West,272,0.0,0.0,83,0.00,,---,0.00,VWS V14.01,2013-10-04 05:00:00,
2013-10-04 01:05:00,55.5,50.8,30.06,West,271,0.0,1.0,84,0.00,,---,0.00,VWS V14.01,2013-10-04 05:05:00,
2013-10-04 01:10:00,55.8,50.7,30.06,West,271,0.0,1.0,83,0.00,,---,0.00,VWS V14.01,2013-10-04 05:10:00,
2013-10-04 01:15:00,56.3,50.9,30.06,West,271,0.0,1.0,82,0.00,,---,0.00,VWS V14.01,2013-10-04 05:15:00,
2013-10-04 01:20:00,56.6,51.2,30.06,West,271,0.0,1.0,82,0.00,,---,0.00,VWS V14.01,2013-10-04 05:20:00,
2013-10-04 01:25:00,56.3,50.9,30.06,West,271,0.0,0.0,82,0.00,,---,0.00,VWS V14.01,2013-10-04 05:25:00,
2013-10-04 01:30:00,55.9,50.8,30.06,West,271,0.0,0.0,83,0.00,,---,0.00,VWS V14.01,2013-10-04 05:30:00,
2013-10-04 01:35:00,55.6,50.5,30.05,West,271,0.0,0.0,83,0.00,,---,0.00,VWS V14.01,2013-10-04 05:35:00,
2013-10-04 01:40:00,55.2,50.5,30.05,West,271,0.0,0.0,84,0.00,,---,0.00,VWS V14.01,2013-10-04 05:40:00,
2013-10-04 01:45:00,55.0,50.3,30.05,West,271,0.0,0.0,84,0.00,,---,0.00,VWS V14.01,2013-10-04 05:45:00,
2013-10-04 01:50:00,54.8,50.1,30.06,West,271,0.0,0.0,84,0.00,,---,0.00,VWS V14.01,2013-10-04 05:50:00,
2013-10-04 01:55:00,54.6,50.2,30.06,West,271,0.0,0.0,85,0.00,,---,0.00,VWS V14.01,2013-10-04 05:55:00,
2013-10-04 02:00:00,54.4,50.3,30.06,West,271,0.0,0.0,86,0.00,,---,0.00,VWS V14.01,2013-10-04 06:00:00,
2013-10-04 02:05:00,54.3,50.2,30.06,West,271,0.0,0.0,86,0.00,,---,0.00,VWS V14.01,2013-10-04 06:05:00,
2013-10-04 02:10:00,54.1,50.0,30.06,West,271,0.0,0.0,86,0.00,,---,0.00,VWS V14.01,2013-10-04 06:10:00,
2013-10-04 02:15:00,54.0,49.9,30.06,West,271,0.0,0.0,86,0.00,,---,0.00,VWS V14.01,2013-10-04 06:15:00,
2013-10-04 02:20:00,53.9,50.1,30.06,West,271,0.0,0.0,87,0.00,,---,0.00,VWS V14.01,2013-10-04 06:20:00,
2013-10-04 02:25:00,53.9,50.1,30.06,West,271,0.0,0.0,87,0.00,,---,0.00,VWS V14.01,2013-10-04 06:25:00,
2013-10-04 02:30:00,53.8,50.0,30.06,West,271,0.0,0.0,87,0.00,,---,0.00,VWS V14.01,2013-10-04 06:30:00,
2013-10-04 02:35:00,53.7,50.2,30.06,West,271,0.0,0.0,88,0.00,,---,0.00,VWS V14.01,2013-10-04 06:35:00,
2013-10-04 02:40:00,53.7,50.2,30.05,West,271,0.0,0.0,88,0.00,,---,0.00,VWS V14.01,2013-10-04 06:40:00,
2013-10-04 02:45:00,53.6,50.1,30.05,West,271,0.0,0.0,88,0.00,,---,0.00,VWS V14.01,2013-10-04 06:45:00,
2013-10-04 02:50:00,53.6,50.1,30.05,West,271,0.0,0.0,88,0.00,,---,0.00,VWS V14.01,2013-10-04 06:50:00,
2013-10-04 02:55:00,53.6,50.1,30.05,West,271,0.0,0.0,88,0.00,,---,0.00,VWS V14.01,2013-10-04 06:55:00,
2013-10-04 03:00:00,53.5,50.0,30.05,West,271,0.0,0.0,88,0.00,,---,0.00,VWS V14.01,2013-10-04 07:00:00,
2013-10-04 03:05:00,53.5,50.0,30.04,West,271,0.0,0.0,88,0.00,,---,0.00,VWS V14.01,2013-10-04 07:05:00,
2013-10-04 03:10:00,53.5,50.0,30.04,West,271,0.0,0.0,88,0.00,,---,0.00,VWS V14.01,2013-10-04 07:10:00,
2013-10-04 03:15:00,53.6,50.1,30.04,West,271,0.0,0.0,88,0.00,,---,0.00,VWS V14.01,2013-10-04 07:15:00,
2013-10-04 03:20:00,53.6,50.1,30.04,West,271,0.0,0.0,88,0.00,,---,0.00,VWS V14.01,2013-10-04 07:20:00,
2013-10-04 03:25:00,53.6,50.1,30.04,West,271,0.0,0.0,88,0.00,,---,0.00,VWS V14.01,2013-10-04 07:25:00,
2013-10-04 03:30:00,53.6,50.1,30.04,West,271,0.0,0.0,88,0.00,,---,0.00,VWS V14.01,2013-10-04 07:30:00,
2013-10-04 03:35:00,53.6,50.1,30.04,West,271,0.0,0.0,88,0.00,,---,0.00,VWS V14.01,2013-10-04 07:35:00,
2013-10-04 03:40:00,53.5,50.0,30.04,West,271,0.0,0.0,88,0.00,,---,0.00,VWS V14.01,2013-10-04 07:40:00,
2013-10-04 03:45:00,53.5,50.0,30.04,West,271,0.0,0.0,88,0.00,,---,0.00,VWS V14.01,2013-10-04 07:45:00,
2013-10-04 03:50:00,53.4,50.2,30.04,West,271,0.0,0.0,89,0.00,,---,0.00,VWS V14.01,2013-10-04 07:50:00,
2013-10-04 03:55:00,53.4,50.2,30.04,West,271,0.0,0.0,89,0.00,,---,0.00,VWS V14.01,2013-10-04 07:55:00,
2013-10-04 04:00:00,53.3,50.2,30.05,West,271,0.0,0.0,89,0.00,,---,0.00,VWS V14.01,2013-10-04 08:00:00,
2013-10-04 04:05:00,53.3,50.2,30.05,West,271,0.0,0.0,89,0.00,,---,0.00,VWS V14.01,2013-10-04 08:05:00,
2013-10-04 04:10:00,53.3,50.2,30.05,West,271,0.0,0.0,89,0.00,,---,0.00,VWS V14.01,2013-10-04 08:10:00,
2013-10-04 04:15:00,53.3,50.2,30.05,West,271,0.0,0.0,89,0.00,,---,0.00,VWS V14.01,2013-10-04 08:15:00,
2013-10-04 04:20:00,53.3,50.2,30.05,West,271,0.0,0.0,89,0.00,,---,0.00,VWS V14.01,2013-10-04 08:20:00,
2013-10-04 04:25:00,53.2,50.0,30.05,West,271,0.0,0.0,89,0.00,,---,0.00,VWS V14.01,2013-10-04 08:25:00,
2013-10-04 04:30:00,53.1,50.0,30.06,West,271,0.0,0.0,89,0.00,,---,0.00,VWS V14.01,2013-10-04 08:30:00,
2013-10-04 04:35:00,53.0,49.8,30.06,West,271,0.0,0.0,89,0.00,,---,0.00,VWS V14.01,2013-10-04 08:35:00,
2013-10-04 04:40:00,52.8,49.7,30.06,West,271,0.0,0.0,89,0.00,,---,0.00,VWS V14.01,2013-10-04 08:40:00,
2013-10-04 04:45:00,52.7,49.6,30.06,West,271,0.0,0.0,89,0.00,,---,0.00,VWS V14.01,2013-10-04 08:45:00,
2013-10-04 04:50:00,52.5,50.2,30.06,West,271,0.0,0.0,92,0.00,,---,0.00,VWS V14.01,2013-10-04 08:50:00,
2013-10-04 04:55:00,52.3,49.2,30.06,West,271,0.0,0.0,89,0.00,,---,0.00,VWS V14.01,2013-10-04 08:55:00,
2013-10-04 05:00:00,52.2,49.1,30.06,West,271,0.0,0.0,89,0.00,,---,0.00,VWS V14.01,2013-10-04 09:00:00,
2013-10-04 05:05:00,52.0,48.9,30.06,West,271,0.0,0.0,89,0.00,,---,0.00,VWS V14.01,2013-10-04 09:05:00,
2013-10-04 05:10:00,51.8,48.7,30.06,West,271,0.0,0.0,89,0.00,,---,0.00,VWS V14.01,2013-10-04 09:10:00,
2013-10-04 05:15:00,51.6,48.5,30.06,West,271,0.0,0.0,89,0.00,,---,0.00,VWS V14.01,2013-10-04 09:15:00,
2013-10-04 05:20:00,51.4,48.6,30.06,West,271,0.0,0.0,90,0.00,,---,0.00,VWS V14.01,2013-10-04 09:20:00,
2013-10-04 05:25:00,51.2,48.4,30.06,West,271,0.0,0.0,90,0.00,,---,0.00,VWS V14.01,2013-10-04 09:25:00,
2013-10-04 05:30:00,51.0,48.5,30.06,West,271,0.0,0.0,91,0.00,,---,0.00,VWS V14.01,2013-10-04 09:30:00,
2013-10-04 05:35:00,50.8,48.3,30.06,West,271,0.0,0.0,91,0.00,,---,0.00,VWS V14.01,2013-10-04 09:35:00,
2013-10-04 05:40:00,50.6,48.1,30.06,West,271,0.0,0.0,91,0.00,,---,0.00,VWS V14.01,2013-10-04 09:40:00,
2013-10-04 05:45:00,50.5,48.0,30.06,West,271,0.0,0.0,91,0.00,,---,0.00,VWS V14.01,2013-10-04 09:45:00,
2013-10-04 05:50:00,50.3,48.1,30.06,West,271,0.0,0.0,92,0.00,,---,0.00,VWS V14.01,2013-10-04 09:50:00,
2013-10-04 05:55:00,50.2,48.0,30.06,West,271,0.0,0.0,92,0.00,,---,0.00,VWS V14.01,2013-10-04 09:55:00,
2013-10-04 06:00:00,50.1,47.9,30.06,West,271,0.0,0.0,92,0.00,,---,0.00,VWS V14.01,2013-10-04 10:00:00,
2013-10-04 06:05:00,49.9,47.7,30.06,West,271,0.0,0.0,92,0.00,,---,0.00,VWS V14.01,2013-10-04 10:05:00,
2013-10-04 06:10:00,49.8,47.6,30.06,West,271,0.0,0.0,92,0.00,,---,0.00,VWS V14.01,2013-10-04 10:10:00,
2013-10-04 06:15:00,49.7,47.5,30.06,West,271,0.0,0.0,92,0.00,,---,0.00,VWS V14.01,2013-10-04 10:15:00,
2013-10-04 06:20:00,49.6,47.7,30.06,West,271,0.0,0.0,93,0.00,,---,0.00,VWS V14.01,2013-10-04 10:20:00,
2013-10-04 06:25:00,49.5,47.6,30.06,West,271,0.0,0.0,93,0.00,,---,0.00,VWS V14.01,2013-10-04 10:25:00,
2013-10-04 06:30:00,49.4,47.5,30.06,West,271,0.0,0.0,93,0.00,,---,0.00,VWS V14.01,2013-10-04 10:30:00,
2013-10-04 06:35:00,49.4,47.5,30.06,West,271,0.0,0.0,93,0.00,,---,0.00,VWS V14.01,2013-10-04 10:35:00,
2013-10-04 06:40:00,49.4,47.5,30.07,West,271,0.0,0.0,93,0.00,,---,0.00,VWS V14.01,2013-10-04 10:40:00,
2013-10-04 06:45:00,49.3,47.7,30.07,West,271,0.0,0.0,94,0.00,,---,0.00,VWS V14.01,2013-10-04 10:45:00,
2013-10-04 06:50:00,49.3,47.7,30.07,West,271,0.0,0.0,94,0.00,,---,0.00,VWS V14.01,2013-10-04 10:50:00,
2013-10-04 06:55:00,49.2,47.5,30.07,West,271,0.0,0.0,94,0.00,,---,0.00,VWS V14.01,2013-10-04 10:55:00,
2013-10-04 07:00:00,49.2,47.5,30.07,West,271,0.0,0.0,94,0.00,,---,0.00,VWS V14.01,2013-10-04 11:00:00,
2013-10-04 07:05:00,49.2,47.5,30.07,West,271,0.0,0.0,94,0.00,,---,0.00,VWS V14.01,2013-10-04 11:05:00,
2013-10-04 07:10:00,49.2,47.5,30.07,West,271,0.0,0.0,94,0.00,,---,0.00,VWS V14.01,2013-10-04 11:10:00,
2013-10-04 07:15:00,49.2,47.5,30.07,West,271,0.0,0.0,94,0.00,,---,0.00,VWS V14.01,2013-10-04 11:15:00,
2013-10-04 07:20:00,49.2,47.5,30.07,West,271,0.0,0.0,94,0.00,,---,0.00,VWS V14.01,2013-10-04 11:20:00,
2013-10-04 07:25:00,49.2,47.5,30.07,West,271,0.0,0.0,94,0.00,,---,0.00,VWS V14.01,2013-10-04 11:25:00,
2013-10-04 07:30:00,49.3,47.9,30.06,West,271,0.0,0.0,95,0.00,,---,0.00,VWS V14.01,2013-10-04 11:30:00,
2013-10-04 07:35:00,49.5,48.1,30.07,West,271,0.0,0.0,95,0.00,,---,0.00,VWS V14.01,2013-10-04 11:35:00,
2013-10-04 07:40:00,49.8,48.4,30.07,West,271,0.0,0.0,95,0.00,,---,0.00,VWS V14.01,2013-10-04 11:40:00,
2013-10-04 07:45:00,50.0,48.6,30.07,West,271,0.0,0.0,95,0.00,,---,0.00,VWS V14.01,2013-10-04 11:45:00,
2013-10-04 07:50:00,50.3,48.9,30.07,West,271,0.0,0.0,95,0.00,,---,0.00,VWS V14.01,2013-10-04 11:50:00,
2013-10-04 07:55:00,50.6,49.2,30.07,West,271,0.0,0.0,95,0.00,,---,0.00,VWS V14.01,2013-10-04 11:55:00,
2013-10-04 08:00:00,51.0,49.9,30.08,West,271,0.0,0.0,96,0.00,,---,0.00,VWS V14.01,2013-10-04 12:00:00,
2013-10-04 08:05:00,51.5,50.4,30.08,West,271,0.0,0.0,96,0.00,,---,0.00,VWS V14.01,2013-10-04 12:05:00,
2013-10-04 08:10:00,52.1,51.0,30.08,West,271,0.0,0.0,96,0.00,,---,0.00,VWS V14.01,2013-10-04 12:10:00,
2013-10-04 08:15:00,52.8,51.7,30.08,West,271,0.0,0.0,96,0.00,,---,0.00,VWS V14.01,2013-10-04 12:15:00,
2013-10-04 08:20:00,53.6,52.5,30.09,West,271,0.0,0.0,96,0.00,,---,0.00,VWS V14.01,2013-10-04 12:20:00,
2013-10-04 08:25:00,54.7,53.0,30.08,West,271,0.0,1.0,94,0.00,,---,0.00,VWS V14.01,2013-10-04 12:25:00,
2013-10-04 08:30:00,55.8,53.2,30.08,West,271,0.0,1.0,91,0.00,,---,0.00,VWS V14.01,2013-10-04 12:30:00,
2013-10-04 08:35:00,56.7,53.2,30.08,West,271,0.0,1.0,88,0.00,,---,0.00,VWS V14.01,2013-10-04 12:35:00,
2013-10-04 08:40:00,57.5,53.3,30.08,NE,35,0.0,2.0,86,0.00,,---,0.00,VWS V14.01,2013-10-04 12:40:00,
2013-10-04 08:45:00,58.1,53.6,30.09,NE,35,0.0,1.0,85,0.00,,---,0.00,VWS V14.01,2013-10-04 12:45:00,
2013-10-04 08:50:00,58.5,53.7,30.09,NE,35,0.0,0.0,84,0.00,,---,0.00,VWS V14.01,2013-10-04 12:50:00,
2013-10-04 08:55:00,58.9,54.1,30.09,NE,35,0.0,0.0,84,0.00,,---,0.00,VWS V14.01,2013-10-04 12:55:00,
2013-10-04 09:00:00,59.2,54.4,30.09,NE,35,1.0,1.0,84,0.00,,---,0.00,VWS V14.01,2013-10-04 13:00:00,
2013-10-04 09:05:00,59.6,55.1,30.09,NE,35,0.0,1.0,85,0.00,,---,0.00,VWS V14.01,2013-10-04 13:05:00,
2013-10-04 09:10:00,60.0,54.8,30.09,NE,35,0.0,0.0,83,0.00,,---,0.00,VWS V14.01,2013-10-04 13:10:00,
2013-10-04 09:15:00,60.2,55.0,30.09,NNW,343,0.0,1.0,83,0.00,,---,0.00,VWS V14.01,2013-10-04 13:15:00,
2013-10-04 09:20:00,60.4,54.5,30.09,NNW,344,0.0,1.0,81,0.00,,---,0.00,VWS V14.01,2013-10-04 13:20:00,
2013-10-04 09:25:00,60.5,54.7,30.09,North,3,0.0,2.0,81,0.00,,---,0.00,VWS V14.01,2013-10-04 13:25:00,
2013-10-04 09:30:00,60.5,54.3,30.09,North,4,0.0,2.0,80,0.00,,---,0.00,VWS V14.01,2013-10-04 13:30:00,
2013-10-04 09:35:00,60.5,54.7,30.09,North,4,0.0,0.0,81,0.00,,---,0.00,VWS V14.01,2013-10-04 13:35:00,
2013-10-04 09:40:00,60.7,54.8,30.09,North,4,0.0,1.0,81,0.00,,---,0.00,VWS V14.01,2013-10-04 13:40:00,
2013-10-04 09:45:00,60.9,54.7,30.09,NNE,25,1.0,2.0,80,0.00,,---,0.00,VWS V14.01,2013-10-04 13:45:00,
2013-10-04 09:50:00,60.9,54.0,30.10,NNE,30,0.0,4.0,78,0.00,,---,0.00,VWS V14.01,2013-10-04 13:50:00,
2013-10-04 09:55:00,61.0,54.1,30.09,ENE,62,0.0,3.0,78,0.00,,---,0.00,VWS V14.01,2013-10-04 13:55:00,
2013-10-04 10:00:00,61.1,54.5,30.09,ENE,62,0.0,1.0,79,0.00,,---,0.00,VWS V14.01,2013-10-04 14:00:00,
2013-10-04 10:05:00,61.1,54.5,30.09,NNW,334,0.0,3.0,79,0.00,,---,0.00,VWS V14.01,2013-10-04 14:05:00,
2013-10-04 10:10:00,61.1,54.5,30.09,NNW,329,0.0,2.0,79,0.00,,---,0.00,VWS V14.01,2013-10-04 14:10:00,
2013-10-04 10:15:00,61.2,55.0,30.09,NNW,329,0.0,1.0,80,0.00,,---,0.00,VWS V14.01,2013-10-04 14:15:00,
2013-10-04 10:20:00,61.3,54.7,30.08,NNE,18,0.0,2.0,79,0.00,,---,0.00,VWS V14.01,2013-10-04 14:20:00,
2013-10-04 10:25:00,61.4,54.1,30.08,NNE,23,0.0,1.0,77,0.00,,---,0.00,VWS V14.01,2013-10-04 14:25:00,
2013-10-04 10:30:00,61.5,54.6,30.08,NNE,23,0.0,1.0,78,0.00,,---,0.00,VWS V14.01,2013-10-04 14:30:00,
2013-10-04 10:35:00,61.5,53.9,30.09,NNE,23,0.0,1.0,76,0.00,,---,0.00,VWS V14.01,2013-10-04 14:35:00,
2013-10-04 10:40:00,61.5,54.9,30.09,NNE,23,0.0,0.0,79,0.00,,---,0.00,VWS V14.01,2013-10-04 14:40:00,
2013-10-04 10:45:00,61.4,55.2,30.09,NNE,23,0.0,1.0,80,0.00,,---,0.00,VWS V14.01,2013-10-04 14:45:00,
2013-10-04 10:50:00,61.2,54.3,30.09,NNW,342,0.0,2.0,78,0.00,,---,0.00,VWS V14.01,2013-10-04 14:50:00,
2013-10-04 10:55:00,60.9,54.7,30.09,NNW,342,0.0,0.0,80,0.00,,---,0.00,VWS V14.01,2013-10-04 14:55:00,
2013-10-04 11:00:00,60.7,54.5,30.09,NNW,342,0.0,1.0,80,0.00,,---,0.00,VWS V14.01,2013-10-04 15:00:00,
2013-10-04 11:05:00,60.5,54.7,30.09,NNE,14,1.0,3.0,81,0.00,,---,0.00,VWS V14.01,2013-10-04 15:05:00,
2013-10-04 11:10:00,60.3,55.1,30.09,NNE,14,0.0,1.0,83,0.00,,---,0.00,VWS V14.01,2013-10-04 15:10:00,
2013-10-04 11:15:00,60.2,55.0,30.09,West,262,0.0,3.0,83,0.00,,---,0.00,VWS V14.01,2013-10-04 15:15:00,
2013-10-04 11:20:00,60.1,55.3,30.09,West,262,0.0,1.0,84,0.00,,---,0.00,VWS V14.01,2013-10-04 15:20:00,
2013-10-04 11:25:00,60.1,55.6,30.09,West,265,0.0,1.0,85,0.00,,---,0.00,VWS V14.01,2013-10-04 15:25:00,
2013-10-04 11:30:00,60.0,55.5,30.09,West,262,0.0,1.0,85,0.00,,---,0.00,VWS V14.01,2013-10-04 15:30:00,
2013-10-04 11:35:00,59.9,55.7,30.09,West,262,0.0,1.0,86,0.00,,---,0.00,VWS V14.01,2013-10-04 15:35:00,
2013-10-04 11:40:00,60.0,55.8,30.09,West,262,0.0,1.0,86,0.00,,---,0.00,VWS V14.01,2013-10-04 15:40:00,
2013-10-04 11:45:00,60.0,55.5,30.09,West,277,0.0,3.0,85,0.00,,---,0.00,VWS V14.01,2013-10-04 15:45:00,
2013-10-04 11:50:00,60.2,56.0,30.09,NNE,18,0.0,2.0,86,0.00,,---,0.00,VWS V14.01,2013-10-04 15:50:00,
2013-10-04 11:55:00,60.4,55.5,30.09,South,178,0.0,5.0,84,0.00,,---,0.00,VWS V14.01,2013-10-04 15:55:00,
2013-10-04 12:00:00,60.5,55.7,30.09,ENE,65,0.0,2.0,84,0.00,,---,0.00,VWS V14.01,2013-10-04 16:00:00,
2013-10-04 12:05:00,60.6,55.8,30.09,ENE,65,0.0,1.0,84,0.00,,---,0.00,VWS V14.01,2013-10-04 16:05:00,
2013-10-04 12:10:00,60.7,55.8,30.09,East,100,0.0,2.0,84,0.00,,---,0.00,VWS V14.01,2013-10-04 16:10:00,
2013-10-04 12:15:00,60.7,56.2,30.09,NNE,12,1.0,2.0,85,0.00,,---,0.00,VWS V14.01,2013-10-04 16:15:00,
2013-10-04 12:20:00,60.6,55.4,30.09,North,10,0.0,2.0,83,0.00,,---,0.00,VWS V14.01,2013-10-04 16:20:00,
2013-10-04 12:25:00,60.4,55.5,30.09,North,10,0.0,1.0,84,0.00,,---,0.00,VWS V14.01,2013-10-04 16:25:00,
2013-10-04 12:30:00,60.3,55.5,30.09,North,10,0.0,2.0,84,0.00,,---,0.00,VWS V14.01,2013-10-04 16:30:00,
2013-10-04 12:35:00,60.1,55.6,30.09,North,5,0.0,2.0,85,0.00,,---,0.00,VWS V14.01,2013-10-04 16:35:00,
2013-10-04 12:40:00,59.8,55.3,30.09,NNW,348,0.0,2.0,85,0.00,,---,0.00,VWS V14.01,2013-10-04 16:40:00,
2013-10-04 12:45:00,59.7,55.5,30.09,NNW,348,0.0,1.0,86,0.00,,---,0.00,VWS V14.01,2013-10-04 16:45:00,
2013-10-04 12:50:00,59.5,55.3,30.09,NNW,348,0.0,1.0,86,0.00,,---,0.00,VWS V14.01,2013-10-04 16:50:00,
2013-10-04 12:55:00,59.3,54.8,30.09,North,353,0.0,3.0,85,0.00,,---,0.00,VWS V14.01,2013-10-04 16:55:00,
2013-10-04 13:00:00,59.1,54.9,30.09,North,353,0.0,2.0,86,0.00,,---,0.00,VWS V14.01,2013-10-04 17:00:00,
2013-10-04 13:05:00,59.0,55.1,30.08,North,353,0.0,1.0,87,0.00,,---,0.00,VWS V14.01,2013-10-04 17:05:00,
2013-10-04 13:10:00,58.9,55.4,30.07,North,353,0.0,1.0,88,0.01,,---,0.01,VWS V14.01,2013-10-04 17:10:00,
2013-10-04 13:15:00,58.9,55.7,30.07,North,353,0.0,0.0,89,0.01,,---,0.01,VWS V14.01,2013-10-04 17:15:00,
2013-10-04 13:20:00,58.9,56.0,30.07,North,353,0.0,1.0,90,0.01,,---,0.01,VWS V14.01,2013-10-04 17:20:00,
2013-10-04 13:25:00,58.8,55.9,30.07,North,353,0.0,0.0,90,0.01,,---,0.01,VWS V14.01,2013-10-04 17:25:00,
2013-10-04 13:30:00,58.7,55.8,30.07,North,353,0.0,0.0,90,0.01,,---,0.01,VWS V14.01,2013-10-04 17:30:00,
2013-10-04 13:35:00,58.6,55.7,30.07,North,353,0.0,0.0,90,0.01,,---,0.01,VWS V14.01,2013-10-04 17:35:00,
2013-10-04 13:40:00,58.6,55.7,30.07,North,353,0.0,0.0,90,0.01,,---,0.01,VWS V14.01,2013-10-04 17:40:00,
2013-10-04 13:45:00,58.5,55.9,30.07,North,353,0.0,0.0,91,0.01,,---,0.01,VWS V14.01,2013-10-04 17:45:00,
2013-10-04 13:50:00,58.6,56.0,30.06,North,353,0.0,0.0,91,0.01,,---,0.01,VWS V14.01,2013-10-04 17:50:00,
2013-10-04 13:55:00,58.6,56.0,30.06,North,353,0.0,0.0,91,0.02,,---,0.02,VWS V14.01,2013-10-04 17:55:00,
2013-10-04 14:00:00,58.7,56.4,30.06,North,353,0.0,0.0,92,0.03,,---,0.03,VWS V14.01,2013-10-04 18:00:00,
2013-10-04 14:05:00,59.0,57.0,30.06,North,353,0.0,1.0,93,0.03,,---,0.03,VWS V14.01,2013-10-04 18:05:00,
2013-10-04 14:10:00,59.0,56.7,30.06,North,353,0.0,0.0,92,0.03,,---,0.03,VWS V14.01,2013-10-04 18:10:00,
2013-10-04 14:15:00,59.3,57.3,30.06,North,353,0.0,0.0,93,0.02,,---,0.03,VWS V14.01,2013-10-04 18:15:00,
2013-10-04 14:20:00,59.5,56.6,30.06,North,353,0.0,1.0,90,0.02,,---,0.03,VWS V14.01,2013-10-04 18:20:00,
2013-10-04 14:25:00,59.8,56.9,30.05,North,353,1.0,1.0,90,0.02,,---,0.03,VWS V14.01,2013-10-04 18:25:00,
2013-10-04 14:30:00,60.4,56.8,30.06,North,353,0.0,1.0,88,0.02,,---,0.03,VWS V14.01,2013-10-04 18:30:00,
2013-10-04 14:35:00,60.9,58.0,30.06,West,267,2.0,2.0,90,0.02,,---,0.03,VWS V14.01,2013-10-04 18:35:00,
2013-10-04 14:40:00,61.6,57.7,30.06,West,267,0.0,2.0,87,0.02,,---,0.03,VWS V14.01,2013-10-04 18:40:00,
2013-10-04 14:45:00,62.0,57.1,30.05,WNW,285,2.0,2.0,84,0.02,,---,0.03,VWS V14.01,2013-10-04 18:45:00,
2013-10-04 14:50:00,61.9,57.0,30.05,NE,40,0.0,3.0,84,0.02,,---,0.03,VWS V14.01,2013-10-04 18:50:00,
2013-10-04 14:55:00,62.3,57.1,30.05,NE,40,0.0,1.0,83,0.02,,---,0.03,VWS V14.01,2013-10-04 18:55:00,
2013-10-04 15:00:00,63.4,59.5,30.05,NE,40,0.0,1.0,87,0.01,,---,0.03,VWS V14.01,2013-10-04 19:00:00,
2013-10-04 15:05:00,64.0,58.7,30.05,NE,40,0.0,1.0,83,0.00,,---,0.03,VWS V14.01,2013-10-04 19:05:00,
2013-10-04 15:10:00,64.4,58.5,30.05,NE,40,1.0,1.0,81,0.00,,---,0.03,VWS V14.01,2013-10-04 19:10:00,
2013-10-04 15:15:00,64.4,57.4,30.05,NE,40,0.0,2.0,78,0.00,,---,0.03,VWS V14.01,2013-10-04 19:15:00,
2013-10-04 15:20:00,64.9,58.2,30.05,NNW,339,0.0,2.0,79,0.00,,---,0.03,VWS V14.01,2013-10-04 19:20:00,
2013-10-04 15:25:00,65.4,58.7,30.05,NNE,23,0.0,3.0,79,0.00,,---,0.03,VWS V14.01,2013-10-04 19:25:00,
2013-10-04 15:30:00,65.2,57.8,30.05,North,356,0.0,3.0,77,0.00,,---,0.03,VWS V14.01,2013-10-04 19:30:00,
2013-10-04 15:35:00,65.5,59.5,30.05,North,356,0.0,1.0,81,0.00,,---,0.03,VWS V14.01,2013-10-04 19:35:00,
2013-10-04 15:40:00,65.4,58.4,30.05,NE,51,0.0,3.0,78,0.00,,---,0.03,VWS V14.01,2013-10-04 19:40:00,
2013-10-04 15:45:00,65.2,58.5,30.05,North,353,0.0,2.0,79,0.00,,---,0.03,VWS V14.01,2013-10-04 19:45:00,
2013-10-04 15:50:00,65.2,58.5,30.05,NNE,30,0.0,3.0,79,0.00,,---,0.03,VWS V14.01,2013-10-04 19:50:00,
2013-10-04 15:55:00,64.9,57.9,30.05,NNE,30,0.0,3.0,78,0.00,,---,0.03,VWS V14.01,2013-10-04 19:55:00,
2013-10-04 16:00:00,64.5,58.5,30.05,NNE,30,0.0,2.0,81,0.00,,---,0.03,VWS V14.01,2013-10-04 20:00:00,
2013-10-04 16:05:00,64.4,58.8,30.05,NNE,26,0.0,1.0,82,0.00,,---,0.03,VWS V14.01,2013-10-04 20:05:00,
2013-10-04 16:10:00,64.1,57.5,30.05,North,11,0.0,2.0,79,0.00,,---,0.03,VWS V14.01,2013-10-04 20:10:00,
2013-10-04 16:15:00,64.1,58.2,30.05,North,11,1.0,1.0,81,0.00,,---,0.03,VWS V14.01,2013-10-04 20:15:00,
2013-10-04 16:20:00,63.9,58.0,30.05,North,11,0.0,2.0,81,0.00,,---,0.03,VWS V14.01,2013-10-04 20:20:00,
2013-10-04 16:25:00,63.9,58.0,30.05,NNE,12,1.0,2.0,81,0.00,,---,0.03,VWS V14.01,2013-10-04 20:25:00,
2013-10-04 16:30:00,63.8,58.2,30.05,NNE,22,1.0,2.0,82,0.00,,---,0.03,VWS V14.01,2013-10-04 20:30:00,
2013-10-04 16:36:00,63.8,58.2,30.05,NNE,22,1.0,2.0,82,0.00,,---,0.03,VWS V14.01,2013-10-04 20:36:00,
2013-10-04 16:40:00,63.9,58.0,30.06,NE,45,0.0,3.0,81,0.00,,---,0.03,VWS V14.01,2013-10-04 20:40:00,
2013-10-04 16:45:00,63.9,58.0,30.05,NE,45,0.0,1.0,81,0.00,,---,0.03,VWS V14.01,2013-10-04 20:45:00,
2013-10-04 16:50:00,63.9,58.3,30.05,NE,45,0.0,0.0,82,0.00,,---,0.03,VWS V14.01,2013-10-04 20:50:00,
2013-10-04 16:55:00,63.9,58.3,30.05,NE,45,0.0,1.0,82,0.00,,---,0.03,VWS V14.01,2013-10-04 20:55:00,
2013-10-04 17:00:00,63.9,58.3,30.05,NE,45,0.0,0.0,82,0.00,,---,0.03,VWS V14.01,2013-10-04 21:00:00,
2013-10-04 17:05:00,63.8,57.9,30.05,NE,45,0.0,1.0,81,0.00,,---,0.03,VWS V14.01,2013-10-04 21:05:00,
2013-10-04 17:10:00,63.7,58.1,30.06,NE,45,0.0,1.0,82,0.00,,---,0.03,VWS V14.01,2013-10-04 21:10:00,
2013-10-04 17:15:00,63.6,58.0,30.05,NE,45,0.0,1.0,82,0.00,,---,0.03,VWS V14.01,2013-10-04 21:15:00,
2013-10-04 17:20:00,63.4,58.2,30.05,NE,45,0.0,1.0,83,0.00,,---,0.03,VWS V14.01,2013-10-04 21:20:00,
2013-10-04 17:25:00,63.4,58.5,30.05,NE,45,0.0,1.0,84,0.00,,---,0.03,VWS V14.01,2013-10-04 21:25:00,
2013-10-04 17:30:00,63.3,58.1,30.06,NE,45,0.0,1.0,83,0.00,,---,0.03,VWS V14.01,2013-10-04 21:30:00,
2013-10-04 17:35:00,63.3,58.7,30.06,NE,45,0.0,0.0,85,0.00,,---,0.03,VWS V14.01,2013-10-04 21:35:00,
2013-10-04 17:40:00,63.2,58.6,30.06,NE,45,0.0,1.0,85,0.00,,---,0.03,VWS V14.01,2013-10-04 21:40:00,
2013-10-04 17:45:00,63.2,58.6,30.05,NE,45,0.0,0.0,85,0.00,,---,0.03,VWS V14.01,2013-10-04 21:45:00,
2013-10-04 17:50:00,63.0,58.4,30.05,NE,45,0.0,1.0,85,0.00,,---,0.03,VWS V14.01,2013-10-04 21:50:00,
2013-10-04 17:55:00,62.8,58.2,30.06,NE,45,0.0,1.0,85,0.00,,---,0.03,VWS V14.01,2013-10-04 21:55:00,
2013-10-04 18:00:00,62.7,58.5,30.05,NE,45,0.0,0.0,86,0.00,,---,0.03,VWS V14.01,2013-10-04 22:00:00,
2013-10-04 18:05:00,62.6,58.7,30.05,NE,45,0.0,0.0,87,0.00,,---,0.03,VWS V14.01,2013-10-04 22:05:00,
2013-10-04 18:10:00,62.4,58.5,30.05,NE,45,0.0,0.0,87,0.00,,---,0.03,VWS V14.01,2013-10-04 22:10:00,
2013-10-04 18:15:00,62.1,58.5,30.06,NE,45,0.0,0.0,88,0.00,,---,0.03,VWS V14.01,2013-10-04 22:15:00,
2013-10-04 18:20:00,61.9,58.6,30.06,NE,45,0.0,0.0,89,0.00,,---,0.03,VWS V14.01,2013-10-04 22:20:00,
2013-10-04 18:25:00,61.6,58.3,30.06,NE,45,0.0,0.0,89,0.00,,---,0.03,VWS V14.01,2013-10-04 22:25:00,
2013-10-04 18:30:00,61.3,58.0,30.06,NE,45,0.0,0.0,89,0.00,,---,0.03,VWS V14.01,2013-10-04 22:30:00,
2013-10-04 18:35:00,61.2,58.2,30.07,NE,45,0.0,0.0,90,0.00,,---,0.03,VWS V14.01,2013-10-04 22:35:00,
2013-10-04 18:40:00,61.1,58.2,30.07,NE,45,0.0,0.0,90,0.00,,---,0.03,VWS V14.01,2013-10-04 22:40:00,
2013-10-04 18:45:00,61.0,58.4,30.07,NE,45,0.0,1.0,91,0.00,,---,0.03,VWS V14.01,2013-10-04 22:45:00,
2013-10-04 18:50:00,61.0,58.4,30.07,NE,45,0.0,0.0,91,0.00,,---,0.03,VWS V14.01,2013-10-04 22:50:00,
2013-10-04 18:55:00,60.9,58.3,30.06,NE,45,0.0,1.0,91,0.00,,---,0.03,VWS V14.01,2013-10-04 22:55:00,
2013-10-04 19:00:00,60.8,58.2,30.06,NE,45,0.0,1.0,91,0.00,,---,0.03,VWS V14.01,2013-10-04 23:00:00,
2013-10-04 19:05:00,60.8,58.2,30.06,NE,45,0.0,0.0,91,0.00,,---,0.03,VWS V14.01,2013-10-04 23:05:00,
2013-10-04 19:10:00,60.7,58.1,30.06,NE,45,0.0,0.0,91,0.00,,---,0.03,VWS V14.01,2013-10-04 23:10:00,
2013-10-04 19:15:00,60.7,58.1,30.06,NE,45,0.0,0.0,91,0.00,,---,0.03,VWS V14.01,2013-10-04 23:15:00,
2013-10-04 19:20:00,60.7,58.1,30.06,NE,45,0.0,1.0,91,0.00,,---,0.03,VWS V14.01,2013-10-04 23:20:00,
2013-10-04 19:25:00,60.6,58.0,30.06,NE,45,0.0,0.0,91,0.00,,---,0.03,VWS V14.01,2013-10-04 23:25:00,
2013-10-04 19:30:00,60.6,58.3,30.06,NE,45,0.0,0.0,92,0.00,,---,0.03,VWS V14.01,2013-10-04 23:30:00,
2013-10-04 19:35:00,60.5,58.2,30.06,NE,45,0.0,0.0,92,0.00,,---,0.03,VWS V14.01,2013-10-04 23:35:00,
2013-10-04 19:40:00,60.5,58.2,30.06,NE,45,0.0,0.0,92,0.00,,---,0.03,VWS V14.01,2013-10-04 23:40:00,
2013-10-04 19:45:00,60.4,58.1,30.07,NE,45,0.0,1.0,92,0.00,,---,0.03,VWS V14.01,2013-10-04 23:45:00,
2013-10-04 19:50:00,60.4,58.1,30.07,NE,45,0.0,0.0,92,0.00,,---,0.03,VWS V14.01,2013-10-04 23:50:00,
2013-10-04 19:55:00,60.3,58.0,30.07,NE,45,0.0,1.0,92,0.00,,---,0.03,VWS V14.01,2013-10-04 23:55:00,
2013-10-04 20:00:00,60.1,57.8,30.07,NE,45,0.0,1.0,92,0.00,,---,0.03,VWS V14.01,2013-10-05 00:00:00,
2013-10-04 20:05:00,59.9,57.3,30.07,NE,45,0.0,2.0,91,0.00,,---,0.03,VWS V14.01,2013-10-05 00:05:00,
2013-10-04 20:10:00,59.8,57.2,30.07,NE,45,0.0,0.0,91,0.00,,---,0.03,VWS V14.01,2013-10-05 00:10:00,
2013-10-04 20:15:00,59.8,57.2,30.07,NE,45,0.0,0.0,91,0.00,,---,0.03,VWS V14.01,2013-10-05 00:15:00,
2013-10-04 20:20:00,59.7,57.1,30.07,NE,45,0.0,0.0,91,0.00,,---,0.03,VWS V14.01,2013-10-05 00:20:00,
2013-10-04 20:25:00,59.7,57.1,30.07,NE,45,0.0,0.0,91,0.00,,---,0.03,VWS V14.01,2013-10-05 00:25:00,
2013-10-04 20:30:00,59.5,56.9,30.07,NE,45,0.0,0.0,91,0.00,,---,0.03,VWS V14.01,2013-10-05 00:30:00,
2013-10-04 20:35:00,59.4,56.8,30.07,NE,45,0.0,0.0,91,0.00,,---,0.03,VWS V14.01,2013-10-05 00:35:00,
2013-10-04 20:40:00,59.3,57.0,30.07,NE,45,0.0,0.0,92,0.00,,---,0.03,VWS V14.01,2013-10-05 00:40:00,
2013-10-04 20:45:00,59.2,56.9,30.07,NE,45,0.0,0.0,92,0.00,,---,0.03,VWS V14.01,2013-10-05 00:45:00,
2013-10-04 20:50:00,59.1,56.8,30.07,NE,45,0.0,0.0,92,0.00,,---,0.03,VWS V14.01,2013-10-05 00:50:00,
2013-10-04 20:55:00,59.0,57.0,30.06,NE,45,0.0,0.0,93,0.00,,---,0.03,VWS V14.01,2013-10-05 00:55:00,
2013-10-04 21:00:00,59.0,57.6,30.07,NE,45,0.0,0.0,95,0.00,,---,0.03,VWS V14.01,2013-10-05 01:00:00,
2013-10-04 21:05:00,59.0,57.0,30.07,NE,45,0.0,0.0,93,0.00,,---,0.03,VWS V14.01,2013-10-05 01:05:00,
2013-10-04 21:10:00,58.9,56.9,30.07,NE,45,0.0,0.0,93,0.00,,---,0.03,VWS V14.01,2013-10-05 01:10:00,
2013-10-04 21:15:00,58.9,56.9,30.08,NE,45,0.0,0.0,93,0.00,,---,0.03,VWS V14.01,2013-10-05 01:15:00,
2013-10-04 21:20:00,58.9,56.9,30.07,NE,45,0.0,0.0,93,0.00,,---,0.03,VWS V14.01,2013-10-05 01:20:00,
2013-10-04 21:25:00,58.9,57.2,30.07,NE,45,0.0,0.0,94,0.00,,---,0.03,VWS V14.01,2013-10-05 01:25:00,
2013-10-04 21:30:00,58.9,57.2,30.07,NE,45,0.0,0.0,94,0.00,,---,0.03,VWS V14.01,2013-10-05 01:30:00,
2013-10-04 21:35:00,58.8,57.1,30.07,NE,45,0.0,0.0,94,0.00,,---,0.03,VWS V14.01,2013-10-05 01:35:00,
2013-10-04 21:40:00,58.8,57.1,30.08,NE,45,0.0,0.0,94,0.00,,---,0.03,VWS V14.01,2013-10-05 01:40:00,
2013-10-04 21:45:00,58.8,57.1,30.08,NE,45,0.0,0.0,94,0.00,,---,0.03,VWS V14.01,2013-10-05 01:45:00,
2013-10-04 21:50:00,58.9,57.2,30.08,NE,45,0.0,0.0,94,0.00,,---,0.03,VWS V14.01,2013-10-05 01:50:00,
2013-10-04 21:55:00,58.8,57.1,30.08,NE,45,0.0,0.0,94,0.00,,---,0.03,VWS V14.01,2013-10-05 01:55:00,
2013-10-04 22:00:00,58.8,57.1,30.08,NE,45,0.0,0.0,94,0.00,,---,0.03,VWS V14.01,2013-10-05 02:00:00,
2013-10-04 22:05:00,58.7,56.7,30.08,NE,45,0.0,0.0,93,0.00,,---,0.03,VWS V14.01,2013-10-05 02:05:00,
2013-10-04 22:10:00,58.7,56.7,30.08,NE,45,0.0,0.0,93,0.00,,---,0.03,VWS V14.01,2013-10-05 02:10:00,
2013-10-04 22:15:00,58.5,56.5,30.08,NE,45,0.0,0.0,93,0.00,,---,0.03,VWS V14.01,2013-10-05 02:15:00,
2013-10-04 22:20:00,58.4,56.4,30.08,NE,45,0.0,0.0,93,0.00,,---,0.03,VWS V14.01,2013-10-05 02:20:00,
2013-10-04 22:25:00,58.1,56.1,30.08,NE,45,0.0,0.0,93,0.00,,---,0.03,VWS V14.01,2013-10-05 02:25:00,
2013-10-04 22:30:00,58.0,56.0,30.08,NE,45,0.0,0.0,93,0.00,,---,0.03,VWS V14.01,2013-10-05 02:30:00,
2013-10-04 22:35:00,57.8,55.8,30.07,NE,45,0.0,0.0,93,0.00,,---,0.03,VWS V14.01,2013-10-05 02:35:00,
2013-10-04 22:40:00,57.7,55.7,30.07,NE,45,0.0,0.0,93,0.00,,---,0.03,VWS V14.01,2013-10-05 02:40:00,
2013-10-04 22:45:00,57.7,56.0,30.07,NE,45,0.0,0.0,94,0.00,,---,0.03,VWS V14.01,2013-10-05 02:45:00,
2013-10-04 22:50:00,57.7,56.0,30.07,NE,45,0.0,0.0,94,0.00,,---,0.03,VWS V14.01,2013-10-05 02:50:00,
2013-10-04 22:55:00,57.7,56.0,30.08,NE,45,0.0,0.0,94,0.00,,---,0.03,VWS V14.01,2013-10-05 02:55:00,
2013-10-04 23:00:00,57.7,56.0,30.08,NE,45,0.0,0.0,94,0.00,,---,0.03,VWS V14.01,2013-10-05 03:00:00,
2013-10-04 23:05:00,57.6,56.2,30.07,NE,45,0.0,0.0,95,0.00,,---,0.03,VWS V14.01,2013-10-05 03:05:00,
2013-10-04 23:10:00,57.6,56.2,30.08,NE,45,0.0,0.0,95,0.00,,---,0.03,VWS V14.01,2013-10-05 03:10:00,
2013-10-04 23:15:00,57.6,56.2,30.08,NE,45,0.0,0.0,95,0.00,,---,0.03,VWS V14.01,2013-10-05 03:15:00,
2013-10-04 23:20:00,57.6,56.2,30.07,NE,45,0.0,0.0,95,0.00,,---,0.03,VWS V14.01,2013-10-05 03:20:00,
2013-10-04 23:25:00,57.7,56.3,30.08,NE,45,0.0,0.0,95,0.00,,---,0.03,VWS V14.01,2013-10-05 03:25:00,
2013-10-04 23:30:00,57.7,56.3,30.08,NE,45,0.0,0.0,95,0.00,,---,0.03,VWS V14.01,2013-10-05 03:30:00,
2013-10-04 23:35:00,57.7,56.3,30.08,NE,45,0.0,0.0,95,0.00,,---,0.03,VWS V14.01,2013-10-05 03:35:00,
2013-10-04 23:40:00,57.8,56.4,30.08,NE,45,0.0,0.0,95,0.00,,---,0.03,VWS V14.01,2013-10-05 03:40:00,
2013-10-04 23:45:00,57.8,56.4,30.08,NE,45,0.0,0.0,95,0.00,,---,0.03,VWS V14.01,2013-10-05 03:45:00,
2013-10-04 23:50:00,57.8,56.4,30.08,NE,45,0.0,0.0,95,0.00,,---,0.03,VWS V14.01,2013-10-05 03:50:00,
2013-10-04 23:55:00,57.8,56.4,30.08,NE,45,0.0,0.0,95,0.00,,---,0.03,VWS V14.01,2013-10-05 03:55:00,